Wind_Speed
21 21 21 21 21 21 21 20 18 17 17 16 14 11 10 9 8 8 10 10 9 8 8 9 9 11 12 12 10 7 5 3 3 3 1 3 2 2 4 3 2 2 2 3 5 6 7 8 9 10 9 8 6 5 8 7 5 6 6 8 7 8 7 4 7 5 2 2 3 3 3 5 4 4 3 3 9 10 8 8 8 7 7 8 6 7 4 10
21 21 21 21 21 21 21 21 19 18 18 16 14 11 10 9 8 8 10 9 8 7 7 8 9 12 13 13 10 7 5 2 4 2 5 3 3 3 3 2 1 2 1 2 5 6 6 8 10 10 7 6 5 6 8 6 6 7 6 7 7 7 2 1 4 3 3 4 2 3 3 3 3 2 1 4 9 8 9 9 9 10 9 7 3 5 6 12
21 21 21 21 22 21 22 21 20 18 18 16 14 12 10 9 8 8 9 8 7 6 7 8 9 12 13 13 10 7 5 5 5 5 6 2 5 3 2 1 2 2 1 2 3 5 4 7 10 9 6 5 4 6 8 7 7 7 5 7 7 4 1 2 5 4 5 6 5 4 3 4 4 3 4 6 9 9 9 9 9 9 8 4 1 3 7 12
20 21 21 22 22 22 22 22 21 19 17 16 15 13 11 10 8 8 7 7 6 5 6 7 9 12 13 13 9 6 5 7 2 7 3 4 5 2 1 2 1 1 2 1 2 4 4 8 9 6 5 5 5 7 7 7 6 4 5 7 3 1 4 6 6 6 7 6 7 6 3 6 6 4 6 7 9 9 9 9 8 7 7 6 3 4 7 10
20 21 21 21 22 22 23 23 22 20 17 16 15 14 12 10 9 8 6 5 5 4 5 8 10 12 13 12 8 4 6 5 4 5 2 4 3 2 1 2 2 3 1 1 3 5 8 9 8 5 4 5 6 6 6 7 5 3 6 6 3 2 6 5 5 6 7 7 7 7 6 7 4 4 7 8 9 7 6 4 4 6 8 8 5 4 7 9
20 20 21 21 22 22 24 24 22 21 18 16 15 15 13 11 9 7 6 4 4 4 5 8 10 12 13 10 5 3 5 1 5 3 2 4 3 3 2 2 4 5 2 2 5 7 9 9 7 5 4 5 5 5 5 7 5 4 5 4 3 4 6 3 4 6 6 8 9 7 6 5 5 7 7 7 8 8 8 6 5 8 8 8 5 4 6 8
20 20 21 21 21 23 24 24 23 22 19 17 15 14 12 10 9 7 5 3 3 3 5 7 10 13 13 8 3 4 1 6 6 2 4 4 4 4 3 5 6 5 3 1 5 6 7 7 6 4 4 5 3 4 5 6 5 6 2 3 4 3 6 5 4 5 6 9 9 6 4 6 9 7 4 6 9 9 9 6 7 8 6 5 4 5 5 7
19 20 21 21 21 23 24 25 24 22 20 17 15 14 12 10 9 6 4 3 2 3 5 7 10 13 12 6 4 3 6 8 5 3 5 5 5 4 3 5 5 5 4 5 4 2 3 4 5 4 3 5 3 5 6 7 6 4 2 4 3 2 5 5 5 6 7 9 7 6 7 10 10 5 4 8 9 7 6 6 7 6 4 4 4 5 5 6
20 21 21 21 22 23 24 25 24 23 21 17 15 14 12 9 8 5 3 2 2 3 5 7 9 12 10 6 6 3 8 5 3 3 4 5 4 3 3 3 4 4 4 7 5 2 2 2 3 2 1 5 3 4 6 6 4 1 1 2 2 2 3 4 6 6 6 7 6 8 10 9 6 3 8 10 6 7 8 8 7 6 5 4 4 5 6 6
20 21 22 22 22 23 25 26 25 24 21 17 15 13 11 9 7 5 2 2 2 2 5 7 9 11 8 6 6 3 6 3 2 3 3 3 2 1 2 2 4 3 4 6 5 5 4 3 3 0 2 4 2 3 4 4 2 2 1 2 1 1 2 3 5 4 5 5 6 9 7 4 3 5 7 3 6 10 9 10 7 7 7 5 5 5 6 6
20 21 22 23 23 24 25 26 26 24 21 17 14 13 12 10 6 4 2 2 1 3 5 7 9 10 7 7 4 5 5 2 2 2 2 2 2 1 0 1 3 2 3 5 6 6 5 5 3 2 1 3 3 4 4 1 1 2 3 3 3 2 2 3 4 3 4 4 4 7 5 4 6 7 4 8 9 8 9 9 7 9 8 6 6 5 5 6
20 22 23 23 23 24 26 27 26 24 20 16 14 13 11 9 6 3 3 2 1 3 5 6 9 9 7 6 2 7 5 2 1 1 2 2 3 3 1 1 2 2 2 2 5 4 3 4 2 2 1 2 4 4 3 0 3 3 5 6 5 5 4 3 2 2 3 2 3 6 7 7 6 1 7 10 9 9 9 10 9 8 6 6 5 5 5 6
21 22 23 24 24 25 27 28 27 24 19 14 14 13 9 7 5 2 3 2 1 3 4 6 8 8 6 1 6 5 2 2 2 2 2 3 3 3 3 2 2 2 2 2 3 2 1 2 4 1 2 3 2 2 2 3 4 4 6 6 3 6 5 4 1 2 4 2 1 6 6 6 6 4 7 7 8 8 9 11 9 4 3 4 5 5 5 5
21 22 23 24 24 25 27 28 27 23 17 13 13 11 7 7 4 0 1 1 1 3 4 6 7 6 5 4 6 1 2 3 4 4 1 2 3 2 0 1 0 1 1 1 1 1 1 1 3 2 2 2 2 3 4 5 5 4 5 5 5 5 4 7 2 2 4 3 2 7 7 3 8 7 8 7 7 6 6 7 6 3 3 4 4 5 5 4
22 23 23 23 24 26 28 29 27 22 14 12 12 7 6 7 2 4 3 3 3 3 5 6 5 4 3 6 4 1 4 4 3 4 3 1 2 3 3 1 1 1 1 1 1 1 2 3 5 3 3 1 3 6 5 5 5 4 4 5 5 4 4 7 4 1 1 3 5 8 7 3 9 9 8 7 6 4 3 3 5 5 5 5 5 4 5 3
23 24 24 24 25 26 29 29 25 19 13 11 9 6 6 4 4 6 5 6 5 3 3 3 2 5 3 6 4 3 3 1 4 5 4 3 2 1 2 1 3 3 3 3 2 2 3 3 2 0 1 4 4 4 3 4 5 4 5 3 3 5 3 6 6 2 1 3 6 9 8 1 7 7 8 7 7 5 4 6 7 7 7 6 5 5 6 5
23 25 25 25 25 27 29 27 22 16 13 10 6 4 5 2 6 6 3 8 6 1 2 3 2 5 1 5 5 3 2 4 5 4 4 3 1 1 0 2 3 3 4 5 4 4 4 3 2 2 3 2 2 3 4 4 3 4 4 2 2 4 2 4 6 5 2 4 5 8 6 3 6 5 7 7 7 6 6 7 8 8 8 7 6 6 6 6
24 25 25 25 25 27 29 24 17 14 12 8 3 3 4 3 4 3 1 6 4 2 2 1 2 3 3 5 2 2 4 6 5 3 2 1 1 1 1 1 1 2 5 6 4 4 4 3 3 3 3 2 2 3 3 0 1 2 2 2 3 4 3 2 4 5 2 4 4 6 4 3 5 4 6 7 8 7 8 8 8 8 8 7 7 8 7 7
24 24 25 25 25 28 28 20 13 12 10 7 3 1 1 1 3 2 3 3 2 2 1 1 2 2 3 3 2 4 6 6 4 1 1 1 3 3 2 1 2 3 4 4 3 1 3 3 4 4 2 1 0 2 3 3 2 0 0 1 2 4 4 1 3 4 0 4 4 4 3 4 4 5 6 6 6 7 8 8 7 8 7 8 8 8 8 8
24 24 24 25 25 28 26 15 10 11 9 7 4 2 2 1 2 2 1 2 1 4 4 3 2 3 1 2 3 6 5 3 1 2 3 2 3 5 3 2 4 4 3 3 1 1 3 4 3 1 2 3 2 2 2 2 0 1 2 3 3 3 3 3 3 3 1 4 3 2 2 4 4 5 6 6 5 7 9 8 8 9 8 8 9 10 10 9
24 24 24 24 25 27 23 11 8 10 10 10 7 2 3 6 3 3 4 1 2 4 4 3 3 4 3 3 5 6 3 3 2 3 3 3 4 6 3 2 6 3 2 2 1 1 4 4 1 3 3 3 1 0 2 2 3 4 4 4 4 5 4 4 4 3 3 6 3 4 3 4 4 4 6 5 6 8 9 9 10 10 9 8 9 11 10 9
25 24 24 24 24 26 20 8 7 8 10 10 8 5 6 6 5 3 4 2 3 2 3 1 2 2 1 2 2 4 4 2 4 4 3 2 5 3 1 2 4 2 2 3 4 4 4 1 4 3 1 2 1 2 4 5 5 5 5 4 4 5 3 4 5 4 3 6 4 7 5 3 4 4 6 6 6 7 8 9 10 10 9 9 10 11 11 11
25 24 25 24 24 25 16 4 5 7 9 9 7 7 5 5 5 4 5 4 2 2 0 1 1 1 3 2 2 3 4 1 2 5 3 3 3 1 2 2 2 1 2 3 3 3 2 3 5 2 2 3 4 3 5 5 6 6 5 5 4 3 4 4 6 6 5 5 4 6 6 3 5 4 5 5 5 5 7 8 9 10 10 11 12 11 11 12
26 25 25 25 23 23 14 2 4 6 6 6 6 6 4 6 5 4 5 3 2 3 2 2 2 3 4 3 1 4 0 3 2 4 3 5 2 0 2 2 3 3 1 2 4 5 0 6 4 2 3 4 4 4 6 5 5 6 6 6 5 4 6 4 3 5 5 6 6 6 7 5 6 5 4 4 3 4 6 8 10 10 11 11 11 11 11 11
26 25 25 25 24 23 11 1 3 6 4 1 3 5 6 9 6 5 5 3 3 4 3 2 1 3 4 1 1 3 1 2 3 4 1 4 3 2 1 1 4 2 3 1 5 4 2 6 2 3 3 4 5 4 5 4 4 5 6 7 6 4 6 5 5 6 6 7 8 8 8 5 7 7 4 3 2 4 6 8 10 11 11 10 10 11 11 11
26 25 25 24 24 23 8 2 5 9 5 1 3 7 9 11 4 5 4 3 4 3 2 3 1 2 2 0 1 2 4 3 4 4 1 1 2 4 2 2 2 2 2 2 4 2 2 4 2 4 4 5 7 5 3 4 6 3 3 4 5 5 5 6 7 6 6 4 4 7 8 5 7 8 6 4 3 3 5 8 11 10 10 10 10 11 11 11
27 25 25 24 25 23 8 1 8 9 4 2 4 9 10 8 1 5 4 3 4 1 1 2 1 3 3 2 2 4 3 3 3 4 3 1 1 3 4 2 1 0 1 3 2 0 1 3 4 5 6 6 6 4 2 4 7 0 4 2 5 5 6 7 7 6 6 3 3 8 9 7 5 5 6 5 5 3 4 8 11 11 10 10 11 11 11 11
27 25 25 25 25 21 8 6 10 6 2 3 5 9 9 3 4 4 4 1 3 1 1 3 2 2 2 1 2 2 2 2 2 3 5 1 1 4 5 3 2 1 2 4 2 2 2 4 3 4 6 5 4 2 0 4 6 2 4 2 4 4 5 5 6 6 5 4 6 8 8 8 5 5 5 4 4 2 5 7 10 10 11 10 10 10 10 11
28 25 24 25 25 17 9 9 7 3 2 4 7 9 5 3 4 4 4 1 2 1 0 2 1 1 2 2 1 1 1 2 3 3 3 2 1 2 3 2 3 2 2 5 4 0 1 3 4 5 6 3 3 2 1 5 4 2 3 4 4 4 4 5 6 6 4 6 8 7 8 8 5 5 4 2 2 2 5 6 8 9 10 9 8 9 9 9
29 26 24 26 21 12 10 10 4 3 3 5 8 7 2 4 4 4 2 1 1 2 1 1 1 2 4 4 2 1 0 1 3 1 3 2 1 1 1 2 3 4 3 5 5 1 1 0 2 4 4 4 4 2 1 4 3 2 5 6 5 5 5 4 5 4 5 7 6 5 6 7 5 3 3 3 2 3 4 4 6 8 9 9 8 7 8 8
30 26 24 24 17 10 8 4 1 2 4 7 8 4 5 4 4 4 1 1 1 1 1 1 2 2 3 3 1 0 1 2 2 3 2 2 2 2 1 1 3 4 4 4 3 2 2 4 3 2 2 4 5 4 3 3 4 4 6 5 5 5 4 5 5 4 7 6 3 3 4 8 7 2 4 4 3 4 4 4 7 8 9 9 8 7 7 7
30 25 22 20 16 12 8 3 3 5 5 7 7 5 5 3 3 1 2 2 2 1 0 1 3 2 1 2 2 1 1 1 2 2 2 2 2 1 2 2 2 3 3 2 2 3 4 3 2 3 2 3 5 5 4 5 6 6 6 5 5 5 4 5 5 5 6 3 3 2 4 7 4 3 4 3 4 4 4 5 6 7 8 9 8 8 7 7
31 25 21 17 13 9 7 5 5 5 4 6 6 4 4 3 1 1 2 1 0 3 1 1 2 1 2 4 1 1 1 1 1 1 1 2 1 0 0 2 2 3 2 2 3 3 2 4 2 5 3 2 5 3 2 4 5 6 6 5 6 5 4 5 5 5 5 2 3 2 3 5 2 4 3 3 4 4 3 3 4 5 7 7 7 7 7 8
30 23 19 13 7 4 3 4 3 3 5 6 5 4 3 3 1 1 1 2 3 1 1 1 2 1 2 1 1 2 2 1 2 2 2 2 2 1 2 3 2 3 3 3 2 3 3 2 2 1 1 2 3 3 3 3 5 5 4 5 6 5 5 4 4 4 3 2 4 4 3 3 1 3 3 3 3 3 2 2 4 4 4 5 6 6 8 8
28 21 13 5 3 3 2 2 2 2 5 5 5 4 3 1 1 1 1 3 2 1 1 1 4 4 2 2 2 2 3 1 1 2 1 2 1 1 0 2 3 4 4 3 1 2 5 0 4 3 2 3 3 3 4 5 5 3 2 6 5 4 4 3 3 3 4 4 2 4 3 1 2 4 4 3 3 4 3 3 4 4 3 3 5 6 7 7
27 18 7 2 3 4 2 1 2 2 5 5 4 3 1 2 1 1 1 2 1 1 1 3 4 4 2 2 3 2 1 1 2 2 1 1 1 1 0 2 3 4 4 4 2 2 4 0 4 2 1 3 4 3 4 4 3 1 3 5 1 2 5 3 1 1 3 6 2 2 3 2 4 5 4 4 5 4 4 4 4 3 3 3 4 5 5 6
25 16 4 1 4 4 1 2 2 3 5 5 4 2 1 2 2 2 2 1 1 1 3 2 1 3 2 1 1 1 1 2 2 2 1 1 1 2 2 2 2 4 5 4 2 1 4 2 3 2 2 4 3 1 2 4 4 3 3 2 2 1 5 4 3 3 4 6 2 1 5 4 4 3 4 5 6 4 2 4 3 2 3 3 4 4 5 5
20 12 3 2 5 2 3 2 1 4 5 4 2 0 0 1 2 2 3 2 0 2 2 2 2 2 2 2 0 1 3 3 1 2 2 1 1 1 1 2 2 2 3 4 3 1 4 3 3 1 1 3 2 4 3 2 4 6 5 4 3 3 4 4 4 4 4 5 2 1 4 4 2 2 6 6 6 7 4 1 1 1 2 3 4 4 5 5
13 7 2 3 4 2 3 0 3 4 5 4 2 2 1 1 4 3 2 2 1 2 2 3 1 1 2 3 2 1 2 3 1 2 2 0 1 1 2 1 2 1 2 4 4 1 2 3 1 2 1 1 3 4 3 3 4 7 6 5 5 3 3 3 3 3 3 4 2 2 2 1 2 3 7 7 7 8 6 4 4 1 2 2 3 4 4 5
7 4 1 4 3 2 1 4 4 4 4 2 2 1 1 2 4 3 2 1 1 2 2 2 0 1 1 2 2 1 2 2 2 2 1 1 1 3 2 1 0 1 1 3 3 1 2 3 1 1 2 2 2 1 3 1 3 5 5 5 5 4 3 3 3 3 3 4 2 3 3 2 5 4 6 8 8 9 7 5 4 3 2 1 2 3 4 4
5 3 2 4 2 1 4 5 3 2 2 1 0 1 2 0 2 5 4 2 1 1 2 1 1 1 1 1 1 1 1 2 1 1 0 1 2 2 1 0 1 1 2 3 1 2 1 2 3 1 1 1 2 3 4 3 3 3 3 4 4 4 4 4 4 3 2 4 3 3 3 3 4 2 5 7 7 8 8 6 5 4 4 3 1 1 3 3
5 2 2 3 2 2 5 4 2 1 3 1 1 1 1 1 1 4 5 4 2 1 1 1 0 1 1 1 1 1 2 2 0 0 1 1 1 1 2 1 2 2 3 2 2 2 2 3 3 1 2 2 4 2 1 1 3 3 3 4 4 3 4 5 4 1 2 3 2 3 3 2 3 4 6 7 7 7 7 7 5 5 4 4 2 1 1 2
4 2 2 1 1 3 5 4 2 2 2 1 1 2 2 2 3 3 5 6 4 2 2 2 1 1 1 1 2 1 2 2 1 0 1 1 2 1 2 1 3 3 3 2 1 2 1 3 2 1 2 3 4 3 3 3 3 3 3 2 4 3 4 4 3 2 2 3 2 4 2 2 4 6 6 7 8 8 7 6 5 5 4 4 4 3 1 2
3 3 0 0 1 3 5 3 2 2 1 2 2 3 2 3 4 3 5 6 4 3 3 2 1 2 0 1 2 2 1 2 1 0 1 2 3 3 2 1 3 2 3 3 2 1 1 2 1 1 1 2 2 3 4 4 4 3 2 1 3 4 4 4 3 3 4 3 3 4 1 3 5 7 7 8 8 7 7 6 5 4 4 3 4 3 2 2
3 3 2 1 2 4 4 3 2 2 2 1 3 3 3 3 2 3 5 4 3 3 3 1 2 2 2 2 2 2 1 2 1 0 1 1 3 3 1 1 3 1 3 3 2 1 1 2 2 3 2 1 1 1 1 1 2 2 1 2 3 4 5 4 3 4 4 2 3 5 1 4 6 7 7 8 8 7 7 7 5 3 3 3 2 1 1 1
3 2 2 3 3 4 3 1 2 3 2 2 2 2 3 4 2 1 3 3 4 4 2 2 3 3 3 3 3 2 2 2 2 2 2 2 3 2 1 2 2 2 5 3 0 2 0 1 2 4 5 4 3 4 3 3 2 1 3 3 3 3 4 5 5 4 3 1 3 3 2 2 6 8 8 8 8 7 7 7 5 4 3 2 1 1 0 0
2 2 1 1 2 3 3 3 4 4 1 2 2 1 2 5 3 3 2 2 3 5 3 2 4 5 4 3 4 2 2 2 2 3 3 3 3 2 2 3 4 7 7 5 1 2 1 2 2 3 4 3 3 3 2 2 2 2 3 3 4 3 4 5 6 4 5 4 2 2 3 1 2 7 8 8 8 8 7 7 5 4 3 2 1 1 1 1
2 2 1 2 1 3 3 3 5 4 3 3 2 1 3 6 5 4 3 2 4 6 5 4 6 6 4 3 3 3 2 3 3 3 3 3 4 3 4 4 4 6 6 3 1 2 2 2 2 1 1 1 1 2 2 2 2 2 3 4 4 5 5 6 8 6 6 6 3 5 4 3 2 3 7 7 8 7 7 6 5 3 3 3 2 2 1 1
1 2 0 0 3 2 1 1 2 5 5 5 3 3 5 7 7 6 3 3 5 6 5 5 6 5 5 4 5 4 3 3 4 3 2 3 4 4 4 4 4 5 5 3 2 1 2 1 2 2 1 2 3 3 3 3 3 3 3 4 4 6 6 7 8 7 6 7 6 6 5 4 2 2 5 6 6 6 5 5 5 5 5 4 3 2 1 1
2 2 0 2 3 3 1 1 3 5 5 4 4 4 4 6 7 5 4 6 6 6 7 7 5 3 4 5 6 6 4 4 5 4 3 4 4 4 4 3 3 4 4 3 2 1 2 1 2 2 2 2 2 3 4 4 5 4 3 2 3 5 5 6 7 5 5 7 6 5 5 3 1 3 4 6 5 5 5 5 5 5 3 3 3 2 1 1
2 3 2 4 3 3 3 4 4 5 5 5 5 4 4 6 6 5 5 7 7 5 7 7 4 2 3 5 7 8 5 5 7 5 4 5 4 4 3 3 3 3 3 3 2 2 2 1 2 3 3 2 1 3 3 4 6 6 4 2 2 4 4 3 4 4 4 4 3 4 5 2 4 5 4 6 6 6 5 5 4 4 3 3 3 2 2 1
1 2 2 4 3 3 4 4 5 5 4 4 5 5 4 4 3 4 5 5 5 4 3 4 4 3 4 6 6 6 4 4 6 5 4 5 5 3 3 3 3 4 2 2 2 2 2 2 2 3 3 2 2 2 2 3 4 3 1 1 1 2 3 3 2 3 4 3 3 3 2 3 5 5 5 6 6 6 5 4 4 4 4 4 4 3 2 1
Wind_Direction
12 11 11 9 7 7 4 1 357 355 353 351 350 349 351 347 346 349 346 344 347 348 350 355 352 353 351 348 346 340 341 324 266 240 310 49 99 93 59 84 126 114 111 127 174 176 157 161 155 167 176 171 194 169 170 197 190 201 216 223 228 226 232 215 212 213 248 227 150 150 178 229 231 188 199 239 237 240 251 252 246 243 248 258 287 315 247 182
9 9 9 7 6 4 4 1 358 357 354 350 347 346 349 341 341 345 343 345 347 347 351 352 349 352 350 347 344 341 352 280 216 120 49 49 149 106 43 67 119 110 120 197 192 192 176 156 157 176 180 167 182 165 172 185 194 212 216 224 230 231 224 149 230 214 234 249 193 157 169 226 246 231 240 261 248 237 247 249 238 237 236 229 257 294 207 180
6 7 7 6 5 2 3 2 358 357 354 350 346 345 345 338 339 340 340 346 347 347 349 348 347 349 350 347 340 345 343 236 197 69 47 113 126 83 22 79 105 102 28 272 215 217 197 149 164 181 171 165 170 172 185 179 191 219 223 228 231 235 207 196 236 229 240 257 251 224 187 232 242 258 268 266 263 257 256 254 244 240 244 244 251 253 193 186
4 6 5 5 4 1 2 1 358 357 354 351 347 346 344 338 336 337 341 346 346 348 346 344 344 346 349 345 337 346 298 234 134 51 55 129 116 70 15 101 104 53 353 291 184 201 179 152 169 185 174 157 153 173 180 171 190 208 214 244 249 222 234 223 228 234 244 253 260 260 242 247 250 253 257 265 265 253 248 248 250 259 280 305 316 225 203 200
4 5 4 4 4 2 2 360 357 355 354 352 350 348 343 337 337 339 341 343 348 349 343 341 341 345 347 341 339 337 266 238 71 46 89 135 127 73 94 117 65 25 350 220 128 159 162 157 167 181 181 145 155 177 162 166 207 208 207 267 323 266 248 230 226 238 248 257 260 259 253 256 257 247 247 254 257 259 270 273 275 284 298 310 310 238 212 215
3 4 4 4 3 3 2 360 357 355 355 353 351 348 342 340 339 339 339 340 347 347 342 339 341 345 346 346 343 277 252 330 52 41 114 149 139 98 120 83 35 17 340 197 144 156 157 166 177 168 157 138 159 169 145 164 215 233 198 249 275 251 259 252 241 240 244 253 251 249 253 260 259 253 247 247 255 270 287 313 312 294 304 312 305 249 226 224
2 3 2 3 3 2 1 359 357 355 354 354 350 345 344 344 338 339 339 336 345 343 340 337 343 347 349 353 305 237 139 63 58 75 119 137 118 102 88 50 23 9 352 145 150 160 154 172 175 151 145 131 137 136 143 165 208 250 162 174 230 240 256 262 262 250 243 249 251 258 259 252 253 257 251 246 253 260 272 297 300 294 305 308 289 250 243 237
3 3 2 1 2 1 359 358 357 354 353 353 349 343 346 343 338 342 334 329 340 336 336 339 346 348 353 342 259 179 79 64 67 94 116 119 111 99 66 44 20 21 35 57 77 144 149 147 139 176 168 111 118 130 151 171 189 248 113 145 211 225 254 270 267 257 248 249 251 254 252 248 250 277 285 254 253 272 298 302 290 290 296 285 275 262 254 247
4 4 2 1 1 359 357 356 355 353 351 351 347 343 343 341 337 333 322 319 317 330 334 338 347 348 352 320 257 132 71 55 86 113 123 123 120 93 57 44 26 43 65 59 53 80 123 104 113 223 88 104 157 131 167 200 169 183 122 161 198 211 255 265 255 249 243 244 241 240 243 245 248 283 255 242 278 344 332 300 283 279 273 264 270 270 259 251
4 4 3 2 359 357 356 354 353 351 349 348 346 342 338 336 331 322 308 266 281 325 327 336 349 348 343 289 254 124 79 60 108 133 149 154 161 113 64 36 26 46 78 75 57 52 65 62 80 283 73 125 180 127 191 245 87 134 235 223 194 216 216 225 233 220 229 229 228 239 237 226 203 227 235 244 351 352 324 292 282 270 265 263 264 263 262 259
4 5 3 2 358 355 355 353 351 349 347 345 343 340 333 329 322 308 273 234 263 307 324 337 344 349 325 274 257 109 105 79 91 167 195 187 209 245 55 21 11 30 77 88 68 53 59 61 79 223 185 151 169 163 190 314 43 201 263 231 175 194 188 190 200 187 230 200 200 243 233 193 192 218 295 3 346 325 304 287 271 263 268 276 273 267 262 264
2 5 3 1 357 355 353 351 349 348 346 342 340 338 330 328 325 290 247 236 249 294 327 332 339 351 310 266 72 90 110 75 61 190 225 219 227 264 287 295 329 357 13 86 84 68 55 48 267 238 86 178 181 171 154 144 250 220 245 232 168 195 198 156 170 195 238 153 160 243 228 199 186 219 351 353 327 310 292 272 260 260 276 297 295 284 263 263
1 4 3 -0 357 354 352 350 347 346 345 340 338 337 331 335 335 280 229 238 254 302 320 324 342 341 285 226 86 86 84 51 55 95 195 214 225 258 293 295 300 324 328 343 79 89 36 354 297 24 82 240 156 100 129 168 233 210 222 243 189 205 187 134 128 204 210 117 115 247 239 185 138 57 15 355 327 308 275 258 262 277 322 316 310 297 279 265
359 2 3 359 356 353 351 349 345 344 345 340 336 337 337 336 335 127 192 268 286 302 314 322 344 318 268 98 98 114 60 81 71 61 132 207 215 196 220 352 331 287 314 316 115 161 265 289 267 141 120 302 75 141 191 175 207 201 197 226 231 223 145 120 116 243 200 130 176 243 256 147 101 58 27 6 340 311 275 264 285 350 17 337 342 321 302 272
357 0 2 359 355 353 351 348 344 344 347 340 335 338 339 334 10 118 99 26 327 307 321 320 336 298 225 115 113 121 96 116 71 33 27 15 229 155 114 89 104 113 117 144 160 169 227 229 234 183 124 154 189 196 193 173 189 198 200 198 212 228 127 119 121 281 222 133 185 235 257 124 86 51 34 14 -0 352 330 343 350 17 30 14 23 358 340 322
355 357 -0 359 355 353 352 347 343 345 348 339 335 343 343 353 107 119 80 25 341 314 318 303 310 280 243 110 125 145 119 84 26 8 9 8 306 83 76 138 128 124 125 131 159 165 197 210 220 312 188 196 209 214 189 184 174 190 232 199 180 217 170 132 131 120 192 181 191 224 262 74 78 43 38 26 16 30 28 29 21 24 33 27 33 28 18 11
354 355 358 357 355 354 351 346 343 348 349 340 339 3 359 78 122 125 72 5 356 46 297 301 292 275 262 113 154 156 58 357 2 349 347 347 299 47 296 193 149 142 136 138 170 180 186 198 182 192 228 214 223 241 216 209 171 169 225 196 172 237 226 151 140 121 180 219 193 211 255 34 69 41 43 34 23 38 40 34 31 31 35 30 31 33 33 28
352 352 355 355 356 354 351 347 346 351 351 343 348 25 19 106 121 128 331 345 359 158 221 259 257 252 135 135 178 33 359 336 339 327 336 0 168 158 248 206 195 201 175 164 173 199 199 194 220 214 199 189 206 247 249 201 85 143 201 190 169 209 236 197 130 102 172 208 189 202 208 95 79 51 46 36 30 39 45 39 33 36 36 36 35 32 32 32
351 350 352 354 355 354 351 349 352 357 357 357 3 11 0 161 164 192 257 283 230 199 196 128 253 278 98 102 22 353 327 321 318 281 106 119 155 160 166 194 235 244 229 205 156 188 245 208 223 228 191 171 118 322 343 38 41 0 274 271 207 194 201 166 105 83 147 207 183 203 176 111 81 55 41 33 36 38 45 44 36 40 40 39 39 35 31 29
351 348 350 353 354 355 353 353 6 11 16 23 6 277 267 301 206 180 303 274 329 356 346 20 344 299 19 62 353 328 311 277 231 100 110 139 174 182 177 206 231 230 258 300 74 91 273 242 214 256 40 35 20 341 336 28 100 237 231 228 233 229 193 162 156 118 221 236 164 155 136 103 73 55 42 27 37 37 38 39 36 39 41 41 38 35 33 30
351 347 349 352 354 356 355 358 23 29 43 44 22 341 26 13 358 9 352 302 78 3 326 359 338 296 324 336 328 329 301 198 148 85 107 144 213 213 174 216 249 229 87 332 307 160 245 246 99 44 34 46 33 239 226 224 218 225 238 223 211 231 205 161 179 146 216 245 173 163 169 111 85 60 52 34 41 41 32 32 35 36 39 43 39 34 32 28
352 347 348 350 353 357 356 6 38 43 57 50 36 54 60 27 353 326 306 277 93 22 307 336 279 267 342 320 330 302 262 185 131 111 104 180 224 236 131 223 272 347 89 238 235 197 217 218 74 61 61 114 143 184 210 218 223 228 236 237 222 225 210 170 191 183 213 250 199 182 198 129 105 74 60 46 47 50 39 37 37 36 39 41 37 33 28 25
352 347 347 349 353 356 355 8 43 47 54 42 42 57 53 359 328 258 255 278 88 83 306 133 215 117 102 97 79 258 255 57 119 105 83 238 219 328 285 253 316 316 221 250 282 256 220 84 70 91 174 194 180 171 211 214 217 231 233 243 236 212 241 220 191 186 208 258 255 204 210 173 141 127 86 59 50 58 47 43 43 39 41 40 36 33 28 26
351 348 347 347 350 355 355 -0 28 32 40 35 51 50 9 337 326 232 237 280 100 95 77 64 44 50 48 62 71 269 289 60 346 72 70 265 245 180 272 331 306 242 207 355 307 281 13 80 82 158 183 222 211 181 216 229 217 223 232 253 255 214 245 258 181 187 211 237 246 229 227 204 181 179 132 85 57 58 43 39 43 42 43 41 38 37 32 28
350 348 347 345 347 354 352 223 26 4 340 356 55 29 349 338 323 219 238 261 135 115 139 145 104 61 48 55 213 284 251 104 22 45 61 282 293 258 256 20 276 275 65 324 267 269 82 91 127 214 196 224 241 219 223 253 254 224 219 246 269 249 243 247 209 212 229 223 210 222 244 218 179 179 152 133 100 56 37 35 36 35 37 36 34 36 31 26
349 348 347 344 344 351 350 183 6 339 295 207 23 356 343 337 313 192 240 238 134 103 163 166 175 72 59 331 73 266 234 143 68 50 102 278 305 282 267 187 245 347 32 263 275 294 100 124 196 254 244 229 242 247 221 252 266 243 177 220 260 260 243 241 230 227 248 242 177 208 251 242 179 169 145 152 146 69 36 34 34 26 28 30 31 31 28 25
348 347 346 343 344 349 354 295 332 319 284 82 357 335 340 336 173 165 244 218 116 30 273 119 57 34 36 4 331 263 245 107 116 98 76 353 277 246 259 245 218 283 243 268 284 309 173 199 212 250 258 247 247 250 182 240 269 300 108 179 229 229 231 239 242 239 252 264 193 210 239 257 223 164 133 168 175 102 36 29 30 23 21 26 30 31 29 29
347 346 344 342 340 342 339 311 317 311 335 2 321 326 335 311 170 187 254 173 83 320 303 73 71 22 6 267 276 279 28 16 238 94 76 326 293 229 251 302 310 248 191 264 280 121 245 260 259 266 262 262 272 295 102 248 266 85 105 221 232 232 242 243 249 252 252 253 241 220 221 248 244 158 141 183 184 102 32 28 25 19 19 19 21 27 30 33
346 345 343 338 336 338 335 320 303 268 310 311 311 331 331 207 191 239 252 124 67 211 85 51 143 14 322 230 198 61 54 339 322 45 121 199 7 275 275 350 307 284 212 261 285 120 260 309 319 289 272 282 292 304 295 258 265 100 148 222 215 225 242 243 253 256 242 245 255 228 209 246 250 164 154 154 151 10 13 26 23 19 21 17 14 20 26 33
343 342 341 335 333 332 324 320 283 228 284 302 324 337 251 192 220 245 222 114 41 131 133 332 276 316 301 240 183 98 170 62 26 348 180 165 128 161 49 22 278 273 247 254 264 272 37 0 256 269 296 317 295 272 250 260 263 155 200 213 206 214 220 236 252 257 251 245 243 213 206 250 257 167 112 89 89 -0 6 29 29 24 25 22 14 15 21 29
341 340 337 330 323 308 301 308 226 261 298 312 327 306 217 205 246 257 97 82 321 88 174 43 26 322 306 277 264 122 180 84 33 279 215 182 214 191 171 243 259 269 259 243 233 236 208 188 170 130 358 316 265 222 180 212 214 204 222 223 221 222 210 226 224 220 250 247 192 169 217 248 247 155 89 94 89 42 34 42 36 30 31 31 22 19 20 23
339 337 333 325 313 295 276 252 272 282 292 315 311 262 228 222 235 271 76 169 246 357 34 39 21 351 298 271 295 16 243 57 24 317 292 246 250 306 292 286 308 283 268 250 246 248 211 162 117 150 153 322 272 224 178 190 204 214 229 230 234 230 212 227 223 215 243 235 136 161 231 246 240 99 93 98 81 57 57 63 52 37 35 36 28 22 20 21
339 335 330 325 317 300 271 243 260 272 293 309 283 242 249 256 243 42 80 177 335 30 25 333 -0 0 241 241 259 38 258 276 8 307 295 292 274 295 55 29 335 289 305 318 283 268 178 128 162 193 163 340 299 270 200 193 206 218 226 230 239 240 231 236 234 234 244 195 144 169 231 240 201 106 92 83 76 54 55 88 82 52 35 32 29 20 17 20
338 335 330 328 332 332 286 230 227 273 302 290 254 230 250 260 84 95 205 75 71 86 87 293 264 218 240 269 21 351 266 117 23 287 249 271 264 215 144 92 15 308 298 297 303 302 273 174 161 212 66 352 331 352 333 272 235 232 242 245 246 251 255 257 253 257 267 207 162 170 217 262 224 128 106 88 90 57 49 116 102 71 45 31 31 22 14 15
337 338 337 343 3 358 334 219 195 274 291 274 248 237 249 269 118 180 246 67 96 162 138 209 253 246 214 130 101 356 328 55 11 295 276 295 279 263 258 87 39 341 307 302 357 292 278 266 86 62 36 12 11 25 343 292 248 228 258 244 246 272 271 276 309 325 319 286 215 185 213 354 72 137 128 122 124 81 59 96 100 84 59 26 30 29 15 10
339 343 346 44 358 336 323 180 174 277 285 266 252 247 295 5 32 109 58 54 52 354 248 215 249 269 253 180 165 159 310 294 297 294 299 311 219 150 86 65 40 359 341 327 327 287 283 150 109 143 136 49 18 19 15 336 289 243 252 240 211 329 285 268 258 332 292 272 247 197 235 142 135 161 144 154 157 113 62 65 77 73 56 27 24 29 17 13
338 339 333 43 340 319 259 140 178 268 271 258 269 300 26 40 42 68 92 89 44 339 293 283 347 304 289 243 185 142 267 259 280 299 251 203 156 125 127 108 46 2 3 337 317 352 309 273 138 198 192 89 50 339 43 15 327 278 257 267 91 234 261 260 248 219 238 257 229 224 260 223 187 182 156 175 176 153 89 40 35 31 48 36 33 36 27 24
331 321 290 351 343 302 163 147 233 269 266 257 259 42 338 165 93 82 119 111 0 249 300 357 24 309 295 282 258 51 321 281 259 306 267 201 93 20 199 133 101 13 359 316 299 14 306 278 133 121 326 107 130 239 209 149 286 283 293 297 261 234 224 215 245 253 248 262 249 220 255 243 237 165 161 175 173 166 164 81 320 12 56 35 34 43 38 32
318 292 218 38 5 164 153 300 280 262 256 258 224 148 193 167 117 114 163 157 264 271 339 23 17 280 284 303 324 59 323 310 325 316 281 180 110 210 248 168 126 87 342 304 306 355 294 279 138 112 319 201 186 247 241 174 235 268 275 260 239 261 280 228 243 274 268 273 274 269 260 215 58 100 154 161 158 166 173 187 206 170 93 46 27 35 40 36
310 278 123 45 20 168 317 302 264 249 247 280 319 127 161 165 131 132 171 201 286 314 358 46 95 275 262 294 312 341 333 312 314 327 320 99 132 177 199 216 172 52 328 282 298 332 266 268 281 140 182 227 193 342 339 341 232 240 234 232 217 218 273 272 250 257 277 282 274 282 287 84 71 80 138 143 154 170 179 187 192 164 133 122 27 22 38 44
293 261 97 43 12 293 302 271 235 269 262 226 331 154 147 255 158 152 165 222 279 3 5 -0 5 340 308 261 272 5 321 282 298 349 338 147 147 155 138 321 318 344 288 256 277 342 299 272 289 303 143 169 97 53 7 354 312 269 231 249 250 224 236 250 232 201 228 271 292 294 299 69 87 120 135 140 161 175 180 183 180 164 157 152 143 355 29 45
267 253 71 27 323 296 289 261 165 303 264 201 67 177 145 322 235 167 171 203 215 171 199 235 0 316 292 312 341 352 293 287 351 10 272 157 150 129 85 68 294 298 290 300 29 31 323 280 279 354 57 82 105 104 340 318 311 298 261 275 289 259 249 257 252 191 200 242 284 272 273 68 115 155 147 153 170 174 178 184 179 166 159 155 160 215 5 51
269 303 57 32 282 267 275 253 164 213 231 81 28 211 178 240 234 184 184 200 198 180 195 183 177 246 272 320 300 286 300 300 307 260 272 188 155 97 52 215 248 274 290 318 61 136 226 275 267 105 91 107 133 170 203 202 237 247 232 277 294 267 265 281 299 318 262 237 246 249 239 116 144 161 162 168 171 174 182 186 182 165 151 152 159 181 190 78
299 294 250 352 268 239 258 255 207 216 160 123 228 213 181 223 235 227 216 210 203 206 212 187 185 226 233 273 265 288 321 275 251 142 252 211 144 97 44 214 222 277 338 1 11 171 211 308 289 226 165 154 186 200 187 186 214 226 192 283 306 292 275 273 275 267 256 246 265 276 307 108 149 165 175 183 182 185 182 178 187 175 149 155 164 172 168 97
287 257 211 217 216 217 253 296 297 255 167 185 246 231 216 219 216 257 253 219 199 229 239 154 156 196 182 200 240 257 269 263 266 131 248 234 156 131 72 168 204 295 33 47 3 292 282 345 328 314 340 357 308 324 123 186 216 219 222 257 298 304 286 276 266 249 243 209 236 268 337 106 148 172 186 192 196 196 179 172 190 188 157 164 172 165 144 97
289 256 198 175 183 210 245 293 281 264 209 208 243 232 243 237 171 171 254 221 186 209 231 139 159 192 190 213 247 245 229 251 265 259 251 228 197 174 119 186 191 104 101 117 289 285 253 50 9 359 19 30 18 30 34 -0 335 265 265 262 274 304 303 284 258 255 287 266 227 261 2 113 166 183 190 195 202 200 182 179 190 184 172 182 180 155 111 60
275 282 264 165 178 210 214 200 228 245 199 203 228 167 240 251 203 164 207 224 187 195 208 178 190 212 210 226 264 271 235 238 245 261 264 231 211 176 144 180 155 131 142 158 210 258 224 103 60 22 47 56 19 24 34 343 327 303 287 279 274 284 292 272 258 289 330 295 251 43 20 314 171 177 184 187 196 199 190 190 191 177 180 197 204 215 240 293
252 295 5 2 279 224 214 214 223 221 196 204 217 193 241 256 249 220 199 169 181 201 215 206 209 232 242 235 257 259 237 250 244 241 255 239 223 200 172 175 157 156 175 178 155 261 280 101 133 246 88 122 276 293 285 281 298 305 290 283 277 267 267 264 264 288 305 281 307 12 338 316 34 163 179 175 184 191 184 186 185 177 188 198 213 232 246 300
250 276 127 34 278 269 351 4 240 231 218 210 209 213 240 258 255 242 218 183 192 202 222 234 226 238 245 231 244 255 237 247 250 238 253 259 246 228 200 188 177 182 203 194 143 268 302 113 155 234 236 216 240 248 258 266 273 280 274 270 269 264 265 265 267 281 285 275 299 331 309 306 12 144 157 149 167 174 162 171 185 192 198 202 217 234 238 291
281 301 326 221 252 256 245 197 226 238 216 203 218 212 226 257 255 241 222 219 213 189 202 236 249 248 242 231 239 254 253 257 265 265 261 254 248 239 226 211 189 188 201 194 159 214 273 156 155 239 237 202 223 243 244 253 265 276 288 284 256 253 259 261 263 268 261 262 279 298 284 267 150 127 121 128 154 174 174 185 199 203 204 214 233 236 218 248
320 345 341 283 252 201 208 208 214 243 227 205 215 206 210 242 247 240 226 225 233 213 199 224 244 226 229 234 239 251 258 263 271 275 265 255 253 253 251 237 216 205 195 184 180 205 241 200 175 235 247 157 166 257 243 242 259 266 277 293 234 225 241 258 262 250 245 258 259 249 259 243 137 138 144 150 170 193 200 202 209 210 209 216 218 209 205 247
243 277 266 277 266 196 213 216 207 235 246 221 217 211 218 235 228 229 227 209 217 231 222 230 229 211 231 236 240 264 282 277 279 284 269 255 248 246 257 250 237 239 222 201 203 212 239 235 198 255 280 107 126 271 257 242 254 245 263 332 237 210 241 257 255 237 232 237 225 230 288 44 105 150 172 174 187 206 212 213 218 215 209 206 204 197 202 262
Height
833 832 830 829 827 825 823 821 820 818 817 816 814 813 812 811 811 810 809 808 808 807 806 806 805 804 803 802 801 801 800 800 800 799 798 798 800 800 800 800 800 800 800 800 800 799 798 798 798 798 797 797 796 795 798 796 795 798 801 804 803 797 791 788 789 790 790 790 791 793 793 795 795 792 788 788 790 789 788 786 782 780 778 778 779 780 782 783
833 832 830 829 827 825 823 821 820 818 817 815 814 813 812 811 810 809 809 808 807 807 806 805 804 804 802 801 801 800 799 799 798 797 798 799 800 800 800 800 800 800 800 799 799 797 796 796 797 796 794 796 796 796 799 797 797 798 799 802 798 790 787 786 788 789 791 792 791 793 795 796 796 793 790 794 793 788 790 788 782 782 779 776 778 780 780 782
833 832 830 828 827 825 823 821 820 818 816 815 814 813 812 811 810 809 808 807 807 806 806 805 804 803 802 801 800 799 799 798 796 797 799 800 800 800 800 800 800 800 800 799 798 797 795 795 796 794 794 796 796 797 799 798 798 796 796 801 793 786 789 790 790 791 791 791 792 793 794 796 795 792 792 796 795 790 792 788 784 784 780 776 777 779 779 780
833 832 830 828 827 825 823 821 819 818 816 815 813 812 811 810 809 809 808 807 806 806 806 805 804 803 802 800 799 799 798 796 797 799 800 800 800 800 800 800 800 800 800 799 798 798 796 796 795 793 793 796 797 796 797 798 797 795 797 797 789 788 794 792 791 792 791 791 794 794 795 798 793 791 793 795 796 793 788 783 782 783 780 777 778 778 779 779
833 832 830 828 827 825 823 821 819 817 815 814 813 812 811 810 809 808 807 807 806 806 805 805 804 802 801 800 799 798 798 799 799 799 800 800 800 800 800 800 800 800 800 799 798 798 797 796 795 794 793 796 798 796 797 796 796 797 796 794 790 793 796 791 790 792 792 792 795 796 798 796 790 792 793 793 797 791 781 777 779 780 780 778 778 778 778 779
833 831 830 828 826 825 823 821 819 817 815 814 813 812 810 809 809 808 807 806 806 806 805 804 803 802 801 799 798 797 798 801 800 799 801 800 800 801 800 801 800 800 799 799 798 797 796 795 794 795 794 796 798 796 798 797 796 798 796 795 795 796 795 792 791 793 793 795 796 796 795 792 793 794 790 791 793 786 778 777 779 779 778 778 777 778 778 779
833 831 830 828 826 824 822 821 819 817 815 813 812 811 810 809 808 807 807 806 806 805 804 804 802 802 800 798 798 796 795 799 800 800 801 801 801 801 801 801 800 800 799 797 796 794 794 794 794 795 794 797 798 797 799 798 798 797 796 797 796 795 795 793 792 793 794 796 795 793 794 795 797 794 789 790 789 782 778 777 779 779 778 779 779 778 778 778
833 831 829 828 826 824 822 820 818 816 814 813 812 810 809 808 807 807 807 806 806 805 804 803 802 801 799 799 796 794 796 800 801 801 801 801 802 801 801 801 801 800 799 797 795 793 793 794 795 794 795 798 798 798 799 799 799 797 796 798 796 796 795 793 794 795 795 795 793 794 797 796 793 792 792 791 785 781 779 779 779 779 779 781 780 779 778 778
833 831 829 827 825 824 822 820 818 816 814 812 811 810 809 808 807 807 806 806 806 805 804 803 802 801 799 798 793 794 800 801 801 801 801 802 802 802 802 802 802 801 799 798 797 794 794 795 796 794 795 798 797 798 798 798 800 797 797 797 796 797 795 795 795 794 795 794 793 796 797 793 789 792 793 788 784 782 782 781 780 780 782 781 781 780 778 778
832 831 829 827 825 823 821 819 817 815 813 812 810 809 808 807 806 806 805 806 805 805 804 803 803 800 800 798 793 797 803 802 802 802 801 802 802 802 802 802 802 800 799 799 797 795 795 796 796 793 794 797 797 799 798 797 798 797 797 796 796 797 795 795 795 793 794 793 794 796 795 791 790 794 792 786 785 785 785 784 781 781 781 780 780 779 778 778
832 830 829 827 825 823 821 819 816 814 813 811 810 808 807 806 806 805 805 805 804 805 804 803 802 800 800 797 793 799 803 802 802 802 802 802 802 803 802 802 802 801 799 798 799 798 797 797 796 795 796 797 798 799 798 797 797 797 798 796 796 796 794 793 793 793 792 792 793 792 792 791 791 793 791 788 787 786 787 785 782 782 780 778 778 778 778 778
832 830 828 827 825 823 820 818 816 814 812 810 809 807 806 805 805 805 805 804 804 804 803 803 802 801 800 796 794 799 802 802 802 802 802 802 802 803 802 802 802 801 800 798 799 800 799 798 796 796 797 796 797 800 799 798 797 798 798 797 796 795 794 793 793 793 792 793 792 791 795 794 793 795 792 790 788 786 786 785 781 780 779 779 778 777 777 777
831 830 828 826 824 822 820 817 815 813 811 810 808 806 805 804 804 804 804 804 804 804 803 803 802 801 800 797 797 800 801 801 801 801 802 802 802 802 802 802 802 802 801 799 799 800 800 799 796 795 796 795 797 800 798 797 798 799 797 796 796 796 795 792 793 793 792 794 792 794 799 794 793 796 794 792 789 788 787 783 780 779 781 782 780 779 778 777
831 829 828 826 824 822 819 817 814 812 810 809 807 806 805 804 803 803 804 804 804 803 803 802 802 801 799 797 799 800 800 801 801 801 801 801 801 801 801 801 801 801 801 800 800 800 800 799 797 795 796 795 796 798 798 798 799 797 798 798 796 796 796 792 794 793 793 794 791 796 799 790 793 797 794 793 790 788 787 784 782 782 785 784 782 781 779 777
831 829 827 825 823 821 819 816 813 811 809 808 807 806 805 804 803 803 804 804 803 803 803 802 802 800 797 798 799 800 800 800 800 801 801 801 800 799 800 801 801 801 800 800 800 800 800 798 796 795 797 796 796 798 798 798 797 796 801 803 797 795 795 794 795 793 794 794 790 796 795 787 794 798 794 794 790 789 789 788 787 787 787 786 785 784 781 779
830 828 826 825 823 820 818 815 812 810 809 807 806 805 804 803 803 803 804 803 803 803 802 802 801 800 797 798 799 799 799 799 799 800 800 800 799 798 800 800 800 800 800 800 800 800 798 797 796 796 796 795 795 796 796 799 799 798 798 801 799 795 795 796 796 792 793 794 791 795 792 787 796 798 795 795 791 790 791 791 791 789 789 788 788 787 784 783
830 828 826 824 822 820 817 814 812 810 808 807 806 805 804 804 803 804 804 803 803 802 802 802 800 799 797 796 798 798 798 799 799 800 799 799 799 799 799 798 798 798 798 799 799 798 797 797 798 798 795 795 795 794 800 805 803 800 797 798 801 798 795 797 797 793 791 793 792 792 791 794 799 797 796 795 792 792 793 795 793 792 792 791 789 788 787 787
830 828 826 824 821 819 817 814 811 809 808 806 805 806 805 804 804 804 803 803 802 802 803 801 800 802 801 797 797 798 798 798 799 799 799 799 799 799 799 798 797 796 797 798 798 797 796 796 796 797 796 796 795 794 803 806 803 804 802 800 803 801 799 797 796 795 792 793 794 793 795 800 801 798 797 796 794 794 795 796 795 794 794 793 791 791 790 789
830 828 826 823 821 819 816 813 811 810 808 806 806 805 804 804 804 804 803 802 801 801 802 800 799 803 803 798 796 798 797 798 798 798 798 798 799 799 798 798 797 796 797 796 796 797 796 796 797 798 798 798 797 798 801 802 802 805 803 801 802 801 799 797 795 795 793 794 795 795 797 801 802 801 800 797 796 797 797 797 797 797 796 795 794 793 792 792
830 828 826 823 821 818 816 813 812 810 808 807 806 805 804 804 802 802 801 799 799 800 800 799 798 799 798 797 797 797 797 797 796 797 798 798 798 798 796 797 796 796 797 797 797 798 797 800 800 800 800 801 802 802 801 802 803 804 804 804 803 801 799 797 797 795 794 797 799 798 800 803 805 804 802 800 798 799 799 800 799 799 799 797 797 796 795 793
829 828 825 823 821 818 816 814 813 811 809 808 806 805 807 807 806 807 805 800 799 800 800 799 799 799 798 798 798 797 797 796 795 796 798 798 797 797 796 797 797 796 798 801 800 799 799 802 802 801 802 803 804 803 803 804 804 805 804 803 803 802 797 795 797 796 794 797 800 801 803 806 807 805 804 801 801 803 802 802 803 801 800 799 799 798 797 795
829 827 825 823 820 818 816 815 814 812 811 809 808 807 809 811 812 812 810 804 800 800 800 799 800 799 798 799 799 798 798 796 796 796 797 798 796 797 796 796 798 798 800 802 801 801 802 802 803 803 802 803 805 804 804 805 805 805 802 802 803 799 795 797 797 796 795 797 798 800 804 808 807 805 805 803 802 804 803 802 804 803 802 801 800 800 800 799
829 827 825 822 820 818 817 815 815 813 812 811 810 810 812 813 812 812 812 807 802 800 799 799 799 798 797 799 799 798 797 797 798 796 797 797 795 796 797 796 799 802 801 801 801 803 804 804 803 803 802 804 805 805 805 805 805 804 801 803 803 799 800 803 800 798 797 796 796 797 801 805 807 806 805 804 802 802 802 802 802 802 803 803 803 804 804 804
829 826 825 822 820 819 816 815 815 814 814 812 812 812 813 813 812 812 810 806 803 800 798 799 798 797 799 799 799 798 797 798 797 796 798 797 795 796 796 797 801 801 799 802 804 803 802 803 802 803 804 803 804 805 805 804 804 802 800 801 802 800 801 801 800 800 799 797 795 798 803 803 803 805 806 804 802 802 802 802 803 803 804 805 805 805 805 805
829 826 824 821 820 818 816 816 815 815 815 812 813 813 812 812 810 812 811 806 805 802 798 800 798 798 799 798 799 797 796 797 797 797 798 797 797 797 797 798 801 801 801 805 805 801 802 803 802 804 804 803 804 804 802 802 804 804 801 799 797 798 799 799 800 801 806 806 795 798 812 808 799 804 807 806 805 805 805 804 806 806 805 806 805 805 806 805
828 826 824 821 819 817 815 815 814 816 814 811 813 812 811 811 809 812 810 804 805 804 800 800 800 800 799 799 798 796 799 800 797 797 798 798 797 797 800 798 798 803 803 803 802 801 803 803 803 805 804 803 804 803 800 801 805 806 801 797 797 798 800 800 799 803 810 808 796 797 811 811 804 805 808 808 809 808 808 808 809 808 806 806 806 807 808 808
828 826 823 821 819 817 815 814 815 815 811 812 813 811 811 810 809 812 810 810 813 809 803 800 800 802 800 799 797 798 806 803 796 798 797 798 797 796 800 799 799 803 800 802 809 807 803 803 804 804 803 803 804 804 801 800 804 807 800 798 800 799 801 800 799 803 802 800 800 798 802 808 807 807 808 808 809 811 811 812 812 811 809 808 808 809 810 812
827 825 823 821 819 819 817 816 816 814 812 812 812 811 811 809 810 810 811 824 823 808 803 802 799 801 799 798 797 798 803 800 800 802 796 798 798 795 799 799 799 803 799 806 817 810 803 804 804 804 805 806 804 803 800 800 803 804 799 798 798 798 800 798 799 801 796 803 810 800 797 807 808 808 811 807 808 814 815 814 814 814 813 812 810 810 811 813
826 824 822 820 818 818 817 816 816 814 813 812 811 811 810 808 811 808 811 826 820 804 805 803 800 802 799 798 798 797 798 799 802 801 795 798 797 795 800 799 799 803 800 804 812 807 802 804 803 804 807 806 804 801 799 801 802 800 799 799 798 798 799 799 800 799 798 810 814 801 799 808 807 807 810 810 815 819 817 816 817 818 818 818 815 813 812 813
825 823 822 819 817 817 816 815 814 813 812 812 811 810 809 809 810 813 821 825 815 806 805 802 802 804 801 800 802 800 800 801 800 798 796 798 796 796 800 799 799 803 803 802 803 802 802 803 803 804 805 803 802 801 801 802 800 799 801 800 801 800 799 801 799 798 807 815 809 798 800 807 810 811 811 817 823 823 821 821 823 823 822 822 820 816 815 814
824 822 821 818 817 817 816 814 812 813 812 811 811 809 809 809 807 816 826 820 812 809 805 805 807 805 803 806 806 803 802 803 801 800 800 800 800 800 803 805 804 806 808 805 803 802 802 804 803 803 804 802 802 801 801 801 799 801 801 800 806 805 802 806 803 805 818 818 805 799 800 804 812 818 818 820 823 824 826 827 828 828 826 825 824 820 818 817
822 821 819 816 815 815 814 813 812 812 812 810 811 807 807 811 811 816 818 814 816 815 809 811 810 807 808 808 807 806 806 806 804 803 804 805 806 807 808 811 811 816 818 812 807 805 801 802 803 803 804 802 802 802 803 802 800 802 801 803 813 813 813 818 813 811 814 809 802 800 802 806 810 816 820 820 822 825 827 828 830 831 828 827 827 824 822 820
820 818 816 814 813 812 812 812 811 812 811 810 810 805 806 815 818 815 811 811 818 816 811 814 812 809 810 808 809 810 808 809 807 806 807 807 810 812 810 809 809 815 819 812 810 807 804 806 804 804 805 802 802 806 809 807 803 802 802 806 814 816 823 829 819 811 809 804 801 799 805 810 810 816 821 821 824 827 828 829 830 831 830 829 828 827 825 823
819 817 814 812 812 811 811 811 811 811 810 810 808 806 813 820 818 814 811 810 815 814 813 815 812 810 809 809 812 810 809 811 808 808 810 810 814 814 810 809 808 809 810 810 812 811 813 816 809 807 809 804 804 808 810 807 802 799 795 800 808 809 815 824 816 809 809 805 802 805 810 809 811 822 825 823 827 829 830 831 830 830 830 829 828 828 828 827
817 815 813 812 812 811 810 811 811 811 810 808 806 808 816 817 811 810 811 809 811 813 813 814 813 811 809 810 813 811 812 814 809 809 813 814 817 815 810 811 810 809 809 814 817 813 813 816 810 808 808 806 809 810 808 808 806 800 795 799 805 801 801 811 814 811 811 809 806 808 809 806 814 825 825 825 831 831 833 833 832 832 830 828 829 829 830 829
816 814 812 812 812 811 810 811 810 811 810 807 807 808 810 810 807 808 810 810 811 813 813 814 813 812 809 809 811 812 813 814 811 812 815 815 815 814 813 812 811 811 811 814 816 814 814 816 810 808 808 808 812 811 808 813 813 808 804 802 800 795 796 808 816 815 817 819 812 807 806 807 816 824 824 828 833 834 835 836 835 834 831 830 829 829 830 830
815 814 812 812 812 811 810 810 810 811 808 805 809 810 807 807 807 806 809 811 812 812 813 816 817 816 814 810 809 811 812 813 812 814 816 816 816 815 814 814 813 812 812 813 814 813 816 817 810 808 812 811 812 812 811 814 815 814 813 803 795 798 799 805 815 818 819 820 812 807 809 808 812 823 829 829 831 837 839 839 839 836 834 833 830 829 830 830
816 814 812 811 811 810 810 810 809 810 807 805 810 813 808 806 806 807 809 811 812 811 812 817 820 819 818 814 811 812 814 813 812 815 816 816 820 820 815 814 815 813 812 813 814 813 815 819 814 809 812 812 810 812 815 816 814 813 813 802 799 809 808 806 815 819 819 820 814 811 810 804 804 819 830 829 831 839 841 841 842 839 837 835 831 829 829 829
817 813 810 810 811 809 810 810 809 808 806 804 807 811 809 806 806 807 809 810 811 810 812 817 820 820 819 816 813 815 817 816 814 817 817 816 821 821 814 814 815 814 813 812 813 814 814 821 821 813 811 812 811 812 815 818 816 812 810 802 799 806 805 803 807 809 813 818 817 817 812 802 803 814 824 827 830 837 840 841 841 838 838 837 834 830 829 829
818 812 808 809 811 809 809 809 807 805 805 804 805 807 808 807 806 807 809 810 811 810 812 816 818 820 819 816 815 816 817 818 816 817 817 815 819 821 814 812 814 814 813 812 813 814 815 820 823 816 811 814 818 817 814 817 817 814 814 809 802 802 803 803 802 801 808 814 816 820 815 807 810 815 818 824 830 834 837 838 837 836 838 838 836 832 830 830
818 812 808 809 810 810 810 808 806 804 804 806 807 808 809 809 807 808 810 811 811 811 812 813 814 817 817 816 817 817 817 818 817 818 818 815 819 823 816 811 813 814 814 813 813 815 817 819 819 816 815 819 823 820 816 818 817 815 817 813 804 802 805 811 809 802 804 809 811 817 817 814 818 819 819 824 830 832 833 834 834 835 837 839 839 835 831 831
817 811 808 810 810 810 809 806 805 806 804 804 807 808 810 810 808 808 810 811 810 810 811 813 814 816 816 815 815 817 817 817 817 819 819 816 818 820 815 812 813 812 813 814 814 815 817 816 816 817 819 820 822 819 818 820 818 817 817 811 804 803 806 811 812 806 804 807 807 810 816 821 823 821 821 825 828 829 830 831 832 832 834 836 837 836 833 830
814 809 808 809 809 809 809 807 806 806 804 803 806 806 808 810 809 808 809 809 810 810 811 812 814 815 815 815 816 817 817 818 818 818 818 818 816 814 812 813 814 812 812 814 815 817 819 816 817 820 820 818 818 817 817 818 819 820 816 810 808 809 808 808 808 808 807 807 806 806 814 825 825 821 822 823 824 825 826 827 829 829 831 833 835 835 833 830
815 811 808 809 809 809 809 808 806 805 804 805 807 806 807 808 808 809 809 808 808 809 810 811 812 814 815 815 815 817 818 821 820 816 817 817 815 812 812 812 814 812 811 813 815 816 818 817 816 819 821 822 822 819 818 818 818 817 816 814 813 811 810 809 807 808 808 805 804 804 811 822 824 821 821 821 820 821 822 824 825 826 828 831 832 832 831 829
816 813 809 808 808 808 807 805 804 804 806 808 808 807 808 809 808 808 808 806 806 807 808 809 810 811 814 816 817 817 818 820 820 817 817 817 814 812 812 812 812 811 811 814 813 812 815 818 816 815 817 822 823 821 821 819 815 815 816 817 816 813 814 814 811 810 809 806 805 804 807 817 821 820 820 819 818 819 819 822 823 823 826 828 828 829 828 828
815 811 807 806 805 805 805 804 805 805 805 808 809 808 808 810 808 807 807 808 808 807 808 809 809 811 814 817 817 817 817 818 819 818 819 819 816 812 811 811 810 811 814 816 814 812 814 817 818 816 816 818 820 819 819 819 818 820 819 817 817 816 816 816 814 811 807 804 804 801 802 811 816 815 816 817 817 818 819 821 822 823 825 826 827 828 827 827
815 810 807 807 807 805 805 804 805 804 804 806 808 808 808 808 808 808 809 808 808 807 808 809 809 812 815 815 816 817 817 817 818 819 818 817 814 812 811 810 810 813 816 816 814 814 815 816 819 820 818 818 819 818 819 821 822 822 820 818 817 816 817 818 815 810 807 807 807 805 805 808 809 807 810 813 815 816 818 820 821 823 825 826 826 827 827 826
815 811 808 811 810 805 804 804 802 803 805 805 805 807 808 807 808 810 809 808 808 807 809 811 810 809 809 811 815 816 817 818 818 817 816 815 813 812 812 811 811 813 814 813 813 813 814 817 820 821 820 819 819 819 819 820 821 820 820 820 818 816 816 817 814 811 812 812 810 810 810 808 806 804 805 808 811 814 817 818 820 823 824 825 826 826 825 825
815 812 810 812 810 804 805 806 804 804 805 805 805 806 808 807 807 807 805 808 810 807 807 811 810 805 805 807 811 813 815 818 818 814 813 814 813 813 814 814 812 811 811 812 814 814 815 819 820 820 821 820 818 818 819 819 819 818 817 816 815 815 814 814 813 813 815 814 811 811 812 809 805 803 804 806 809 812 815 818 821 822 823 824 824 824 823 824
815 813 811 812 810 806 807 807 807 806 804 806 807 804 804 806 805 804 804 806 809 808 807 809 807 803 804 806 809 811 810 811 812 811 811 814 814 812 812 813 811 810 809 811 814 815 818 821 821 820 820 819 817 817 818 817 817 816 814 811 812 815 815 814 814 815 817 815 811 812 814 810 804 802 805 809 811 813 816 819 820 820 821 823 823 823 823 823
817 816 816 814 808 806 807 806 805 806 804 804 805 802 802 804 802 802 803 801 803 806 806 805 805 805 807 808 808 808 805 804 807 807 807 810 811 809 809 807 807 810 811 812 814 815 817 818 819 819 819 817 816 816 815 815 815 815 814 811 811 815 816 813 812 813 814 814 814 816 813 806 802 804 808 811 813 814 815 816 818 820 821 822 823 823 823 823
818 818 818 816 810 806 805 804 803 806 803 799 799 799 800 799 797 801 805 801 799 802 803 803 804 806 809 810 808 805 802 803 804 804 804 805 804 805 806 806 806 808 810 812 813 813 813 814 814 816 815 813 812 813 813 815 816 814 810 808 808 811 812 811 810 810 811 813 816 813 806 802 803 806 809 812 813 814 814 815 817 819 820 821 822 822 823 823